Decorah, IA

1:33 PM CDT on March 23, 2017 (GMT -0500)
Decorah Municipal

Weather History for KDEH - November, 2012

Change the Weather History Date:

Friday, November 23, 2012

  Actual Average Record
Temperature  
Mean Temperature 26 °F -  
Max Temperature 33 °F 38 °F 61 °F (1966)
Min Temperature 19 °F 22 °F -4 °F (1950)
Degree Days  
Heating Degree Days 39    
Moisture  
Dew Point 14 °F    
Average Humidity 65    
Maximum Humidity 74    
Minimum Humidity 59    
Precipitation  
Precipitation 0.00 in - - ()
Sea Level Pressure  
Sea Level Pressure 30.17 in    
Wind  
Wind Speed 19 mph (NW)    
Max Wind Speed 29 mph    
Max Gust Speed 45 mph    
Visibility 10 miles    
Events Rain , Snow    
Averages and records for this station are not official NWS values.
T = Trace of Precipitation, MM = Missing Value Source: NWS Daily Summary

Daily Weather History Graph

Daily Weather History Graph

Search for Another Location

Airport or City:

Trip Planner

Search our weather history database for the weather conditions in past years. The results will help you decide how hot, cold, wet, or windy it might be!

Date:

Astronomy

Nov. 23, 2012 Rise Set
Actual Time 7:10 AM CST 4:36 PM CST
Civil Twilight 6:39 AM CST 5:07 PM CST
Nautical Twilight 6:04 AM CST 5:42 PM CST
Astronomical Twilight 5:30 AM CST 6:16 PM CST
Moon 1:56 PM CST 2:23 AM CST
Length of Visible Light 10h 28m
Length of Day
9h 25m
Waxing Gibbous, 80% of the Moon is Illuminated
Nov 23
Waxing Gibbous
Nov 28
Full
Dec 6
Last Quarter
Dec 13
New
Dec 19
First Quarter

Hourly Weather History & Observations

Time (CST) Temp. Windchill Dew Point Humidity Pressure Visibility Wind Dir Wind Speed Gust Speed Precip Events Conditions
12:15 AM 33.8 °F 24.3 °F 24.8 °F 70% 29.93 in 10.0 mi West 13.8 mph 31.1 mph N/A   Overcast
12:55 AM 30.2 °F 16.8 °F 19.4 °F 64% 29.96 in 10.0 mi WNW 23.0 mph 35.7 mph N/A   Overcast
1:15 AM 30.2 °F 18.9 °F 21.2 °F 69% 29.96 in 10.0 mi NW 16.1 mph 31.1 mph N/A   Overcast
1:35 AM 30.2 °F 17.1 °F 21.2 °F 69% 29.97 in 10.0 mi WNW 21.9 mph 34.5 mph N/A   Overcast
1:55 AM 30.2 °F 17.4 °F 19.4 °F 64% 29.97 in 10.0 mi WNW 20.7 mph 34.5 mph N/A   Overcast
2:15 AM 28.4 °F 14.1 °F 17.6 °F 64% 29.98 in 10.0 mi WNW 24.2 mph 44.9 mph N/A   Overcast
2:35 AM 26.6 °F 13.1 °F 15.8 °F 64% 29.99 in 10.0 mi WNW 19.6 mph 39.1 mph N/A   Overcast
2:55 AM 26.6 °F 13.4 °F 15.8 °F 64% 30.00 in 10.0 mi NW 18.4 mph 35.7 mph N/A   Overcast
3:15 AM - - - N/A% 30.00 in 10.0 mi NW 28.8 mph 42.6 mph N/A   Overcast
3:35 AM 24.8 °F 9.0 °F 14.0 °F 64% 30.00 in 10.0 mi NW 25.3 mph 35.7 mph N/A   Overcast
3:55 AM 24.8 °F 10.7 °F 14.0 °F 64% 30.02 in 10.0 mi WNW 19.6 mph 34.5 mph N/A   Overcast
4:15 AM 24.8 °F 10.0 °F 14.0 °F 64% 30.02 in 10.0 mi NW 21.9 mph 38.0 mph N/A   Overcast
4:35 AM 24.8 °F 11.1 °F 14.0 °F 64% 30.03 in 10.0 mi WNW 18.4 mph 27.6 mph N/A   Overcast
4:55 AM 24.8 °F - 14.0 °F 64% - 10.0 mi North - - N/A Rain Light Freezing Rain
5:15 AM 24.8 °F 10.3 °F 15.8 °F 69% 30.04 in 8.0 mi NW 20.7 mph 32.2 mph N/A Snow Light Snow
5:35 AM 23.0 °F 11.7 °F 14.0 °F 68% 30.05 in 10.0 mi WNW 11.5 mph 31.1 mph N/A Rain Light Freezing Rain
5:55 AM 23.0 °F 7.6 °F 14.0 °F 68% 30.06 in 10.0 mi WNW 21.9 mph 34.5 mph N/A Rain Light Freezing Rain
6:15 AM 23.0 °F 11.1 °F 14.0 °F 68% 30.07 in 10.0 mi NW 12.7 mph 25.3 mph N/A   Overcast
6:35 AM 23.0 °F 9.2 °F 14.0 °F 68% 30.08 in 10.0 mi WNW 17.3 mph 35.7 mph N/A   Overcast
6:55 AM 23.0 °F 8.3 °F 14.0 °F 68% 30.09 in 10.0 mi NW 19.6 mph 27.6 mph N/A   Overcast
7:15 AM 21.2 °F 8.3 °F 14.0 °F 74% 30.09 in 10.0 mi WNW 13.8 mph 29.9 mph N/A   Overcast
7:35 AM 21.2 °F 6.0 °F 12.2 °F 68% 30.11 in 10.0 mi WNW 19.6 mph 31.1 mph N/A   Overcast
7:55 AM 21.2 °F 5.2 °F 12.2 °F 68% 30.12 in 10.0 mi NW 21.9 mph 29.9 mph N/A   Overcast
8:15 AM 21.2 °F 8.3 °F 12.2 °F 68% 30.13 in 10.0 mi NW 13.8 mph 33.4 mph N/A   Overcast
8:35 AM 21.2 °F 7.3 °F 10.4 °F 63% 30.14 in 10.0 mi WNW 16.1 mph 28.8 mph N/A   Overcast
8:55 AM 19.4 °F 2.5 °F 10.4 °F 68% 30.15 in - WNW 23.0 mph 28.8 mph N/A Snow Light Snow
9:15 AM 21.2 °F 5.2 °F 10.4 °F 63% 30.16 in 10.0 mi NW 21.9 mph 34.5 mph N/A Snow Light Snow
9:35 AM 21.2 °F 6.4 °F 10.4 °F 63% 30.17 in 10.0 mi NW 18.4 mph 32.2 mph N/A Snow Light Snow
9:55 AM 21.2 °F - 10.4 °F 63% 30.17 in 9.0 mi North - - N/A Snow Light Snow
10:15 AM 21.2 °F 3.9 °F 10.4 °F 63% 30.18 in 9.0 mi NW 26.5 mph 33.4 mph N/A Snow Light Snow
10:35 AM 23.0 °F 6.9 °F 10.4 °F 59% 30.18 in 10.0 mi NNW 24.2 mph 29.9 mph N/A   Overcast
10:55 AM 23.0 °F 8.0 °F 10.4 °F 59% 30.19 in 10.0 mi NW 20.7 mph 28.8 mph N/A   Overcast
11:15 AM 23.0 °F 7.2 °F 12.2 °F 63% 30.20 in 10.0 mi NNW 23.0 mph 28.8 mph N/A   Overcast
11:35 AM 24.8 °F 9.3 °F 12.2 °F 59% 30.19 in 10.0 mi NNW 24.2 mph 32.2 mph N/A   Overcast
11:55 AM 24.8 °F 10.0 °F 12.2 °F 59% 30.20 in 10.0 mi NW 21.9 mph 29.9 mph N/A   Overcast
12:15 PM 24.8 °F 9.3 °F 12.2 °F 59% 30.20 in 10.0 mi NNW 24.2 mph 32.2 mph N/A   Overcast
12:35 PM 24.8 °F 10.7 °F 14.0 °F 64% 30.20 in 10.0 mi NW 19.6 mph 28.8 mph N/A   Overcast
12:55 PM 24.8 °F 10.0 °F 14.0 °F 64% 30.21 in 10.0 mi NNW 21.9 mph 29.9 mph N/A   Overcast
1:15 PM 26.6 °F 14.3 °F 14.0 °F 59% 30.21 in 10.0 mi NW 16.1 mph 26.5 mph N/A   Overcast
1:35 PM 26.6 °F 13.1 °F 14.0 °F 59% 30.21 in 10.0 mi NNW 19.6 mph 29.9 mph N/A   Overcast
1:55 PM 26.6 °F 13.4 °F 14.0 °F 59% 30.22 in 10.0 mi NW 18.4 mph 32.2 mph N/A   Overcast
2:15 PM 26.6 °F 15.7 °F 14.0 °F 59% 30.22 in 10.0 mi NW 12.7 mph 26.5 mph N/A   Overcast
2:35 PM 26.6 °F 13.8 °F 14.0 °F 59% 30.23 in 10.0 mi NNW 17.3 mph 25.3 mph N/A   Overcast
2:55 PM 26.6 °F 15.2 °F 14.0 °F 59% 30.24 in 10.0 mi NW 13.8 mph 21.9 mph N/A   Overcast
3:15 PM 26.6 °F 13.8 °F 14.0 °F 59% 30.24 in 10.0 mi NNW 17.3 mph - N/A   Overcast
3:35 PM 24.8 °F 10.7 °F 14.0 °F 64% 30.25 in 10.0 mi NW 19.6 mph 25.3 mph N/A   Overcast
3:55 PM 24.8 °F 10.7 °F 14.0 °F 64% 30.26 in 10.0 mi NNW 19.6 mph 29.9 mph N/A   Overcast
4:15 PM 24.8 °F 10.7 °F 14.0 °F 64% 30.27 in 10.0 mi NNW 19.6 mph 25.3 mph N/A   Overcast
4:35 PM 24.8 °F 10.3 °F 14.0 °F 64% 30.27 in 10.0 mi NW 20.7 mph 28.8 mph N/A   Overcast
4:55 PM 24.8 °F 11.9 °F 14.0 °F 64% 30.27 in 10.0 mi NW 16.1 mph 26.5 mph N/A   Overcast
5:15 PM 24.8 °F 10.7 °F 14.0 °F 64% 30.27 in 10.0 mi NW 19.6 mph 28.8 mph N/A   Overcast
5:35 PM 24.8 °F 14.6 °F 14.0 °F 64% 30.28 in 10.0 mi NW 10.4 mph 17.3 mph N/A   Overcast
5:55 PM 24.8 °F 13.4 °F 14.0 °F 64% 30.29 in 10.0 mi NW 12.7 mph - N/A   Overcast
6:15 PM 24.8 °F 15.3 °F 14.0 °F 64% 30.28 in 10.0 mi NW 9.2 mph - N/A   Overcast
6:35 PM - - - N/A% - 10.0 mi North - - N/A   Overcast
6:55 PM - - - N/A% - 10.0 mi North - - N/A   Unknown
7:15 PM 24.8 °F 12.4 °F 14.0 °F 64% 30.28 in 10.0 mi NW 15.0 mph 23.0 mph N/A   Unknown
7:35 PM - - - N/A% 30.28 in 10.0 mi NNW 20.7 mph - N/A   Overcast
7:55 PM 24.8 °F 11.5 °F 14.0 °F 64% 30.28 in 10.0 mi NNW 17.3 mph - N/A   Overcast
8:15 PM 24.8 °F 10.7 °F 14.0 °F 64% 30.28 in 10.0 mi NW 19.6 mph 25.3 mph N/A   Overcast
8:35 PM 24.8 °F 11.5 °F 14.0 °F 64% 30.26 in - NNW 17.3 mph - N/A   Unknown
8:55 PM 23.0 °F 9.6 °F 14.0 °F 68% 30.26 in 10.0 mi NW 16.1 mph - N/A   Unknown
9:15 PM 23.0 °F 9.2 °F 14.0 °F 68% 30.27 in 10.0 mi NNW 17.3 mph 23.0 mph N/A   Overcast
9:35 PM 23.0 °F 9.6 °F 14.0 °F 68% 30.27 in 10.0 mi NNW 16.1 mph 23.0 mph N/A   Overcast
9:55 PM 23.0 °F 11.1 °F 14.0 °F 68% 30.27 in 10.0 mi NNW 12.7 mph 19.6 mph N/A   Overcast
10:15 PM 23.0 °F 10.6 °F 14.0 °F 68% 30.27 in 10.0 mi NNW 13.8 mph - N/A   Overcast
10:35 PM 23.0 °F 10.6 °F 14.0 °F 68% 30.27 in 10.0 mi NNW 13.8 mph 20.7 mph N/A   Overcast
10:55 PM 23.0 °F 11.7 °F 14.0 °F 68% 30.27 in 10.0 mi NNW 11.5 mph 17.3 mph N/A   Overcast
11:15 PM 23.0 °F 10.6 °F 14.0 °F 68% 30.26 in 10.0 mi North 13.8 mph - N/A   Overcast
11:35 PM 23.0 °F 11.1 °F 14.0 °F 68% 30.27 in 10.0 mi NNW 12.7 mph - N/A   Overcast
11:55 PM 23.0 °F 11.1 °F 14.0 °F 68% 30.27 in 10.0 mi NNW 12.7 mph - N/A   Overcast